Watonga, OK

4:22 AM CDT on September 21, 2017 (GMT -0500)
Watonga

Weather History for KJWG - January, 2014

Change the Weather History Date:

Friday, January 31, 2014

  Actual Average Record
Temperature  
Mean Temperature 30 °F -  
Max Temperature 36 °F 52 °F 72 °F (1962)
Min Temperature 25 °F 28 °F -4 °F (1979)
Degree Days  
Heating Degree Days 34    
Moisture  
Dew Point 27 °F    
Average Humidity 89    
Maximum Humidity 100    
Minimum Humidity 69    
Precipitation  
Precipitation 0.00 in - - ()
Sea Level Pressure  
Sea Level Pressure 29.83 in    
Wind  
Wind Speed 12 mph (North)    
Max Wind Speed 21 mph    
Max Gust Speed 24 mph    
Visibility 6 miles    
Events      
Averages and records for this station are not official NWS values.
T = Trace of Precipitation, MM = Missing Value Source: NWS Daily Summary

Daily Weather History Graph

Daily Weather History Graph

Search for Another Location

Airport or City:

Trip Planner

Search our weather history database for the weather conditions in past years. The results will help you decide how hot, cold, wet, or windy it might be!

Date:

Astronomy

Jan. 31, 2014 Rise Set
Actual Time 7:34 AM CST 5:59 PM CST
Civil Twilight 7:07 AM CST 6:26 PM CST
Nautical Twilight 6:37 AM CST 6:57 PM CST
Astronomical Twilight 6:07 AM CST 7:27 PM CST
Moon 7:49 AM CST (1/31) 7:21 PM CST (1/31)
Length of Visible Light 11h 19m
Length of Day
10h 25m
New Moon, 1% of the Moon is Illuminated
Jan 31
New Moon
Feb 6
First Quarter
Feb 14
Full
Feb 22
Last Quarter
Mar 1
New

Hourly Weather History & Observations

Time (CST) Temp. Windchill Dew Point Humidity Pressure Visibility Wind Dir Wind Speed Gust Speed Precip Events Conditions
12:15 AM 36.7 °F 29.9 °F 27.5 °F 69% 29.78 in 10.0 mi NNE 9.2 mph - N/A   Clear
12:35 AM 36.5 °F 29.2 °F 27.5 °F 70% 29.78 in 10.0 mi NNE 10.4 mph - N/A   Clear
12:55 AM 36.0 °F 28.0 °F 27.3 °F 71% 29.77 in 10.0 mi NNE 11.5 mph - N/A   Clear
1:15 AM 36.0 °F 29.0 °F 27.7 °F 72% 29.78 in 10.0 mi NNE 9.2 mph - N/A   Clear
1:35 AM 35.6 °F 28.6 °F 27.0 °F 71% 29.77 in 10.0 mi NNE 9.2 mph - N/A   Clear
1:55 AM 34.9 °F 26.6 °F 26.6 °F 72% 29.76 in 10.0 mi North 11.5 mph - N/A   Clear
2:15 AM 34.3 °F 25.9 °F 26.6 °F 73% 29.75 in 10.0 mi NNE 11.5 mph - N/A   Clear
2:35 AM 33.8 °F 24.8 °F 26.6 °F 75% 29.75 in 10.0 mi North 12.7 mph - N/A   Clear
2:55 AM 33.4 °F 25.9 °F 26.6 °F 76% 29.75 in 10.0 mi NNE 9.2 mph - N/A   Clear
3:15 AM 33.3 °F 25.1 °F 26.6 °F 77% 29.75 in 10.0 mi NNE 10.4 mph - N/A   Clear
3:35 AM 33.3 °F 23.2 °F 26.6 °F 77% 29.75 in 10.0 mi North 15.0 mph - N/A   Scattered Clouds
3:55 AM 33.4 °F 24.3 °F 27.1 °F 78% 29.75 in 10.0 mi North 12.7 mph - N/A   Mostly Cloudy
4:15 AM 33.4 °F 23.9 °F 27.1 °F 78% 29.75 in 10.0 mi North 13.8 mph - N/A   Overcast
4:35 AM 33.8 °F 24.3 °F 27.3 °F 77% 29.75 in 10.0 mi North 13.8 mph - N/A   Overcast
4:55 AM 33.8 °F 23.9 °F 27.3 °F 77% 29.74 in 10.0 mi North 15.0 mph - N/A   Overcast
5:15 AM 33.8 °F 24.8 °F 27.5 °F 78% 29.75 in 10.0 mi North 12.7 mph - N/A   Overcast
5:35 AM 34.2 °F 24.0 °F 27.7 °F 77% 29.76 in 10.0 mi North 16.1 mph - N/A   Overcast
5:55 AM 34.2 °F 24.8 °F 27.5 °F 77% 29.76 in 10.0 mi North 13.8 mph 18.4 mph N/A   Overcast
6:15 AM 34.2 °F 24.8 °F 27.5 °F 77% 29.77 in 10.0 mi North 13.8 mph - N/A   Overcast
6:35 AM 34.3 °F 24.6 °F 27.5 °F 76% 29.77 in 10.0 mi North 15.0 mph - N/A   Overcast
6:55 AM 34.2 °F 24.4 °F 27.1 °F 75% 29.77 in 10.0 mi North 15.0 mph - N/A   Overcast
7:15 AM 34.0 °F 24.2 °F 27.0 °F 75% 29.79 in 10.0 mi North 15.0 mph - N/A   Overcast
7:35 AM 34.0 °F 23.8 °F 26.6 °F 74% 29.80 in 10.0 mi North 16.1 mph - N/A   Overcast
7:55 AM 34.0 °F 24.6 °F 26.6 °F 74% 29.81 in 10.0 mi North 13.8 mph 19.6 mph N/A   Overcast
8:15 AM 33.8 °F 24.3 °F 26.4 °F 74% 29.82 in 10.0 mi North 13.8 mph - N/A   Overcast
8:35 AM 33.8 °F 23.9 °F 26.4 °F 74% 29.83 in 10.0 mi North 15.0 mph - N/A   Overcast
8:55 AM 33.8 °F 23.2 °F 26.4 °F 74% 29.84 in 10.0 mi North 17.3 mph - N/A   Overcast
9:15 AM 33.8 °F 23.9 °F 27.3 °F 77% 29.86 in 10.0 mi North 15.0 mph 19.6 mph N/A   Overcast
9:35 AM 33.8 °F 23.2 °F 28.0 °F 79% 29.86 in 10.0 mi North 17.3 mph 23.0 mph N/A   Overcast
9:55 AM 33.3 °F 22.5 °F 28.6 °F 83% 29.88 in 10.0 mi North 17.3 mph 21.9 mph N/A   Overcast
10:15 AM 32.5 °F 20.5 °F 28.4 °F 85% 29.89 in 10.0 mi North 20.7 mph 24.2 mph N/A   Overcast
10:35 AM 31.6 °F 19.7 °F 29.3 °F 91% 29.90 in 7.0 mi NNW 19.6 mph - N/A   Overcast
10:55 AM 30.2 °F 19.3 °F 30.2 °F 100% 29.92 in 2.5 mi NNW 15.0 mph 23.0 mph N/A   Overcast
11:15 AM 30.2 °F 18.5 °F 30.2 °F 100% 29.92 in 2.0 mi North 17.3 mph 23.0 mph N/A   Overcast
11:35 AM 29.8 °F 18.4 °F 29.8 °F 100% 29.92 in 2.5 mi North 16.1 mph - N/A   Overcast
11:55 AM 30.0 °F 19.1 °F 30.0 °F 100% 29.92 in 2.5 mi NNW 15.0 mph - N/A   Overcast
12:15 PM 30.2 °F 18.9 °F 30.2 °F 100% 29.91 in 3.0 mi NNW 16.1 mph - N/A   Overcast
12:35 PM 30.0 °F 19.1 °F 30.0 °F 100% 29.91 in 3.0 mi NNW 15.0 mph - N/A   Overcast
12:55 PM 29.8 °F 19.3 °F 29.8 °F 100% 29.90 in 2.5 mi North 13.8 mph 21.9 mph N/A   Overcast
1:15 PM 29.8 °F 18.9 °F 29.8 °F 100% 29.89 in 2.5 mi North 15.0 mph 19.6 mph N/A   Overcast
1:35 PM 29.8 °F 19.8 °F 29.8 °F 100% 29.87 in 3.0 mi North 12.7 mph - N/A   Overcast
1:55 PM 29.3 °F 18.2 °F 29.3 °F 100% 29.89 in 3.0 mi North 15.0 mph - N/A   Overcast
2:15 PM 28.9 °F 17.3 °F 28.9 °F 100% 29.88 in 3.0 mi North 16.1 mph 19.6 mph N/A   Overcast
2:35 PM 28.8 °F 16.6 °F 28.8 °F 100% 29.87 in 4.0 mi North 17.3 mph - N/A   Overcast
2:55 PM 28.8 °F 17.5 °F 28.8 °F 100% 29.87 in 5.0 mi North 15.0 mph - N/A   Overcast
3:15 PM 28.2 °F 17.2 °F 28.2 °F 100% 29.88 in 3.0 mi North 13.8 mph - N/A   Overcast
3:35 PM 27.7 °F 16.1 °F 27.7 °F 100% 29.87 in 2.0 mi North 15.0 mph - N/A   Overcast
3:55 PM 27.9 °F 17.3 °F 27.9 °F 100% 29.88 in 5.0 mi North 12.7 mph - N/A   Overcast
4:15 PM 27.5 °F 16.8 °F 27.5 °F 100% 29.86 in 5.0 mi North 12.7 mph - N/A   Overcast
4:35 PM 27.1 °F 17.5 °F 27.1 °F 100% 29.87 in 7.0 mi North 10.4 mph - N/A   Overcast
4:55 PM 27.1 °F 17.5 °F 27.1 °F 100% 29.88 in 5.0 mi North 10.4 mph - N/A   Overcast
5:15 PM 27.0 °F 18.0 °F 27.0 °F 100% 29.87 in 5.0 mi North 9.2 mph - N/A   Overcast
5:35 PM 26.6 °F 18.2 °F 26.6 °F 100% 29.86 in 3.0 mi North 8.1 mph - N/A   Overcast
5:55 PM 26.4 °F 16.6 °F 26.4 °F 100% 29.86 in 4.0 mi NNE 10.4 mph - N/A   Overcast
6:15 PM 26.4 °F 18.0 °F 26.4 °F 100% 29.86 in 2.5 mi North 8.1 mph - N/A   Overcast
6:35 PM 26.2 °F 17.1 °F 26.2 °F 100% 29.86 in 3.0 mi North 9.2 mph - N/A   Overcast
6:55 PM 26.2 °F 16.4 °F 26.2 °F 100% 29.85 in 1.5 mi North 10.4 mph - N/A   Overcast
7:15 PM 26.2 °F 16.4 °F 26.2 °F 100% 29.84 in 1.5 mi North 10.4 mph - N/A   Overcast
7:35 PM 26.2 °F 17.1 °F 26.2 °F 100% 29.85 in 2.0 mi North 9.2 mph - N/A   Overcast
7:55 PM 26.1 °F 16.2 °F 26.1 °F 100% 29.84 in 1.8 mi NNE 10.4 mph - N/A   Overcast
8:15 PM 26.1 °F 15.6 °F 26.1 °F 100% 29.83 in 2.0 mi North 11.5 mph - N/A   Overcast
8:35 PM 25.7 °F 15.1 °F 25.7 °F 100% 29.84 in 2.0 mi North 11.5 mph - N/A   Overcast
8:55 PM 25.7 °F 17.1 °F 25.7 °F 100% 29.86 in 1.8 mi North 8.1 mph - N/A   Overcast
9:15 PM 25.7 °F 17.1 °F 25.7 °F 100% 29.85 in 1.2 mi North 8.1 mph - N/A   Overcast
9:35 PM 25.7 °F 17.1 °F 25.7 °F 100% 29.85 in 1.8 mi North 8.1 mph - N/A   Overcast
9:55 PM 25.7 °F 14.6 °F 25.7 °F 100% 29.85 in 2.5 mi North 12.7 mph - N/A   Overcast
10:15 PM 25.7 °F 15.7 °F 25.7 °F 100% 29.84 in 2.5 mi North 10.4 mph - N/A   Overcast
10:35 PM 25.7 °F 14.6 °F 25.7 °F 100% 29.85 in 3.0 mi NNW 12.7 mph - N/A   Overcast
10:55 PM 25.7 °F 14.6 °F 25.7 °F 100% 29.85 in 4.0 mi NNW 12.7 mph 18.4 mph N/A   Overcast
11:15 PM 25.5 °F 16.2 °F 25.5 °F 100% 29.84 in 5.0 mi North 9.2 mph - N/A   Overcast
11:35 PM 25.5 °F 14.3 °F 25.5 °F 100% 29.85 in 5.0 mi North 12.7 mph - N/A   Overcast
11:55 PM 25.3 °F 15.3 °F 25.3 °F 100% 29.87 in 4.0 mi North 10.4 mph - N/A   Overcast